Location: *
(49.3983°S, 171.1646°W)
Time: 05:52:42
(UTC+00:00)

Daily predictions for brighter satellites

Satellite Brightness Start Highest point End
(mag) Time Altitude Azimuth Time Altitude Azimuth Time Altitude Azimuth
SL-24 DEB 4.2 06:15:10 10° NNE 06:19:44 72° E 06:24:21 10° S
SL-16 R/B 4.3 06:17:56 10° S 06:20:34 13° SSE 06:23:13 10° SE
USA 59 Rocket 3.8 06:13:45 10° SW 06:21:03 25° WNW 06:27:12 10° NNW
SPOT 1/Viking Rocket 3.5 06:16:36 10° SSE 06:21:48 67° ENE 06:26:57 10° N
IRS-P3 4.4 06:17:06 10° SSE 06:22:21 49° E 06:27:32 10° N
Cosmos 1656 4.4 06:16:51 10° SW 06:22:32 61° WNW 06:28:08 10° N
SJ-6B 4.4 06:22:21 10° ESE 06:23:43 12° E 06:25:03 10° ENE
Cosmos 1766 3.6 06:20:31 10° SSW 06:23:51 58° W 06:27:08 10° N
Tiangong 0.1 06:23:34 10° NW 06:25:49 18° N 06:28:04 10° NE
Cosmos 292 Rocket 3.8 06:22:32 10° SSW 06:27:21 89° WNW 06:32:05 10° NNE
Cosmos 2084 Rocket 4.2 06:23:28 10° WNW 06:27:39 56° SW 06:31:51 10° SE
Cosmos 968 Rocket 4.1 06:23:23 10° SSW 06:28:38 63° WNW 06:33:46 10° N
Cosmos 2322 Rocket 4.4 06:29:15 10° S 06:30:51 11° SSE 06:32:28 10° SE
USA 215 4.0 06:26:42 10° ESE 06:32:55 47° S 06:39:09 10° WSW
Cosmos 1238 Rocket 3.8 06:31:26 10° NE 06:34:10 23° E 06:37:13 10° SE
Cosmos 1470 2.3 06:31:03 10° S 06:34:29 69° ESE 06:37:52 10° NNE
Resurs 1-3 3.6 06:31:30 10° SSE 06:35:51 60° E 06:40:08 10° N
SJ-12 4.0 06:32:23 10° S 06:36:18 75° WSW 06:40:07 10° NNW
Lacrosse 5 rocket 1.8 06:33:21 10° WNW 06:37:02 52° SSW 06:40:42 10° SE
SKYMED 3 4.3 06:33:12 10° NNE 06:37:07 82° ESE 06:41:07 10° SSW
Cosmos 1271 Rocket 3.6 06:35:06 10° NE 06:37:58 23° E 06:40:51 10° SE
Cosmos 1741 Rocket 4.3 06:35:28 10° SSW 06:40:49 76° WNW 06:46:05 10° NNE
ATLAS 3B R/B 3.6 06:35:31 10° SW 06:41:03 32° SSE 06:46:30 11° E
SAR-Lupe-1 4.2 06:38:19 10° SSE 06:41:53 49° E 06:45:24 10° N
Meteor 2-4 Rocket 4.5 06:37:48 10° NE 06:42:26 29° E 06:47:12 10° SSE
CZ-2D R/B 3.6 06:39:25 10° S 06:42:28 52° WSW 06:45:28 10° NNW
COSMOS 2455 3.8 06:37:05 10° SW 06:42:55 50° WNW 06:48:42 10° N
Cosmos 2360 Rocket 4.4 06:41:09 10° S 06:43:01 11° SSE 06:44:54 10° SE
Cosmos 1975 2.6 06:41:53 10° S 06:45:41 89° E 06:49:25 10° N
Cosmos 44 4.0 06:44:42 10° WNW 06:49:15 52° SW 06:53:36 10° SSE
Cosmos 1302 Rocket 4.2 06:46:15 10° N 06:51:17 50° ENE 06:56:24 10° SSE
NOSS 3-1 (A) 3.9 06:45:10 10° SW 06:51:43 56° WNW 06:56:50 10° NNE
Cosmos 1452 Rocket 3.5 06:49:20 10° NNW 06:54:35 86° ENE 06:59:56 10° SSE
Meteor 1-19 Rocket 4.4 06:51:55 10° N 06:57:47 89° ENE 07:03:53 10° SSE
SAR-Lupe-4 3.5 06:55:38 10° SSE 06:59:17 83° ENE 07:02:53 10° NNW
ATLAS 5 CENTAUR R/B 3.0 06:56:18 10° SW 07:02:11 39° SSE 07:05:46 18° E
Radarsat Rocket 4.1 06:57:32 10° SSE 07:03:18 51° ENE 07:09:04 10° N
Cosmos 2221 3.5 07:04:48 10° NNW 07:08:53 49° WSW 07:13:02 10° S
Meteor 2-11 Rocket 4.4 07:04:32 10° S 07:10:46 82° ESE 07:16:55 10° NNE
SL-08 R/B 4.5 07:04:26 10° S 07:10:52 74° E 07:17:08 10° NNE
Cosmos 1553 Rocket 4.0 07:05:35 10° N 07:11:57 67° E 07:18:24 10° SSE
Meteor 1-27 Rocket 3.7 07:07:47 10° N 07:13:37 70° E 07:19:23 10° SSE
Cosmos 1818 3.7 07:08:41 10° SW 07:14:04 60° SE 07:17:27 23° ENE
ARIANE 5 R/B 3.9 07:11:38 10° S 07:16:33 43° WSW 07:21:23 10° NW
Sich 1 3.8 07:14:21 10° S 07:18:12 32° ESE 07:19:25 27° ENE
Cosmos 1766 Rocket 3.4 07:14:47 10° S 07:19:13 82° E 07:23:22 11° NNE
Cosmos 1709 Rocket 4.5 07:15:05 10° S 07:21:01 42° ESE 07:24:37 22° NE
USA 81 4.4 07:17:37 10° S 07:22:44 44° ESE 07:25:38 23° NE
Timation 1 Rocket 4.4 07:17:07 10° N 07:22:58 58° ENE 07:28:52 10° SE
Spot 4 Rocket 4.0 07:21:12 10° SSE 07:26:26 90° E 07:31:36 10° NNW
Terra 3.9 07:24:19 10° SE 07:24:48 11° ESE 07:24:48 11° ESE
CARTOSAT-1 3.8 07:22:39 10° S 07:26:57 69° WSW 07:31:10 10° NNW
CZ-2D R/B 3.9 07:24:32 10° S 07:28:31 63° WSW 07:32:31 10° NNW
ATLAS 2AS CENTAUR R/B 2.9 07:22:10 10° NNW 07:28:59 51° ENE 07:36:01 10° SE
Meteor 2-10 Rocket 3.9 07:27:23 10° S 07:32:56 55° ESE 07:36:05 26° NE
Cosmos 1833 Rocket 3.3 07:27:23 10° NW 07:32:59 61° WSW 07:38:40 10° SSE
USA 229 DEB 3.7 07:29:19 10° SW 07:36:03 60° SE 07:39:07 30° ENE
USA 229 3.7 07:29:24 10° SW 07:36:07 59° SE 07:39:10 30° ENE
Cosmos 1745 Rocket 3.9 07:30:35 10° S 07:36:49 67° ESE 07:41:14 20° NNE
Resurs 01 Rocket 1.8 07:34:19 10° S 07:38:48 73° WSW 07:43:14 10° NNW
Cosmos 2219 Rocket 4.2 07:35:59 10° S 07:39:14 15° SSE 07:41:52 12° ESE
Okean 3 Rocket 3.7 07:38:19 10° S 07:42:53 59° ESE 07:44:20 39° NE
Cosmos 1992 Rocket 3.9 07:40:00 10° NNW 07:45:12 80° ENE 07:50:30 10° SSE
Meteor 1-31 Rocket 4.0 07:41:52 10° SSE 07:43:36 24° SE 07:43:36 24° SE
Cosmos 2315 Rocket 4.3 07:42:28 24° NNE 07:45:59 46° E 07:52:03 10° SSE
Cosmos 2333 Rocket 3.4 07:41:10 10° SSW 07:46:14 29° SE 07:48:04 25° ESE
PSLV R/B 4.2 07:44:03 10° S 07:48:10 55° WSW 07:52:13 10° NNW
Cosmos 2082 Rocket 2.4 07:45:41 10° N 07:51:06 48° ENE 07:56:32 10° SE
Cosmos 1697 Rocket 4.2 07:52:21 10° SW 07:57:20 32° WNW 08:02:17 10° NNW
SJ-6B 3.1 07:53:56 10° S 07:57:25 57° WSW 08:00:40 11° NNW
IRAS Rocket 4.3 07:52:43 10° SSE 07:58:20 59° ENE 08:01:52 23° N
Helios 1A 3.4 07:59:05 43° ESE 07:59:05 43° ESE 08:02:41 10° S
Cosmos 1417 Rocket 4.4 07:54:10 10° N 08:00:20 83° E 08:06:37 10° S
Cosmos 1980 Rocket 2.5 07:54:54 10° SSW 08:00:32 63° WNW 08:03:32 27° N
Cosmos 1777 Rocket 4.2 07:56:58 10° SSW 08:02:08 54° ESE 08:03:05 47° E
Cosmos 1842 Rocket 3.7 07:58:37 12° NNW 08:02:44 75° W 08:07:14 10° S
S3M 3.9 07:57:46 12° N 08:03:36 76° E 08:09:49 10° SSE
SL-16 R/B 2.8 08:00:54 10° SSW 08:06:20 41° SE 08:07:26 38° E
CZ-4 R/B 2.4 08:04:32 10° SSE 08:06:39 30° SE 08:06:39 30° SE
Cosmos 1151 Rocket 3.8 08:11:57 38° SE 08:11:57 38° SE 08:14:58 10° SSE
Cosmos 1066 Rocket 4.2 08:06:07 10° NNW 08:11:35 82° WSW 08:17:15 10° S
SPOT 5 2.8 08:07:16 10° SSE 08:12:10 79° ENE 08:14:03 39° N
CSL-04 Debris 4.1 08:08:12 10° SSE 08:13:44 66° ENE 08:15:14 46° NNE
Lacrosse 5 rocket 2.9 08:11:13 10° WSW 08:14:24 25° S 08:15:28 22° SSE
Cosmos 1408 Rocket 3.4 08:10:39 10° S 08:14:59 77° ESE 08:14:59 77° ESE
USA 215 3.4 08:12:46 38° E 08:15:27 68° SSE 08:22:00 10° WSW
Cosmos 2322 Rocket 3.2 08:11:43 10° SSW 08:16:53 32° SE 08:17:42 31° ESE
Cosmos 883 Rocket 4.4 08:13:39 26° N 08:17:28 79° E 08:23:49 10° SSE
Gblst 52 Del rocket 4.1 08:12:28 10° WNW 08:18:08 84° SSW 08:20:00 43° ESE
Cosmos 1503 Rocket 4.0 08:17:30 10° SSW 08:22:42 63° ESE 08:22:58 62° E
ADEOS 4.4 08:18:12 10° SSE 08:21:42 34° ESE 08:21:42 34° ESE
Cosmos 2369 3.8 08:21:02 10° SSW 08:26:49 72° WNW 08:28:13 51° N
Cosmos 2360 Rocket 3.1 08:23:41 10° SSW 08:28:53 34° SE 08:29:17 34° ESE
Cosmos 2237 4.2 08:24:17 10° SSW 08:30:05 82° WNW 08:31:08 61° N
ERS-1 Rocket 3.5 08:27:19 10° SSE 08:31:06 44° SE 08:31:06 44° SE
ATLAS 3B R/B 2.4 08:26:05 10° SW 08:32:24 89° NW 08:33:44 60° NE
CZ-4B R/B 3.7 08:27:29 10° SSE 08:31:37 43° ESE 08:31:37 43° ESE
In-Cosmos 22 4.1 08:32:48 51° N 08:34:20 90° E 08:40:09 10° SSE
Cosmos 1500 Rocket 3.7 08:30:07 10° SSW 08:34:29 75° WSW 08:34:29 75° WSW
Cosmos 1743 Rocket 4.0 08:30:16 10° S 08:33:46 53° SSE 08:33:46 53° SSE
CSL-04 Rocket 3.6 08:30:11 10° SSE 08:35:36 79° WSW 08:37:37 39° NNW
CZ-4B DEB 4.0 08:30:10 10° SSE 08:35:47 75° ENE 08:36:03 73° NE
Okean O Rocket 3.9 08:38:16 10° SSE 08:39:03 14° SE 08:39:03 14° SE
Cosmos 1486 Rocket 4.2 08:38:28 10° SSW 08:43:47 64° WNW 08:44:19 61° NW
Cosmos 1805 Rocket 4.1 08:40:01 10° SSW 08:44:07 57° WSW 08:44:07 57° WSW
ATLAS 5 CENTAUR R/B 2.2 08:39:05 10° SW 08:44:52 59° NW 08:44:59 58° NW
Meteor 1-22 Rocket 4.3 08:42:37 10° S 08:48:04 63° SE 08:48:04 63° SE
CZ-4C R/B 4.4 08:54:00 20° ESE 08:54:00 20° ESE 08:56:04 10° SE
COSMOS 2406 3.9 09:00:51 44° SE 09:00:51 44° SE 09:04:44 10° SSE
Cosmos 990 Rocket 4.3 08:58:44 10° SSW 09:03:16 66° SSW 09:03:16 66° SSW
Terra 2.7 09:00:10 10° SSE 09:03:24 43° S 09:03:24 43° S
Cosmos 2278 3.9 09:11:02 10° SSW 09:16:03 68° SW 09:16:03 68° SW
Cosmos 2074 Rocket 3.9 09:11:05 10° S 09:17:13 83° SSW 09:17:13 83° SSW
Cosmos 1295 Rocket 4.5 09:11:27 10° SSW 09:17:40 79° W 09:17:40 79° W
ATLAS 2AS CENTAUR R/B 3.5 09:12:58 10° WNW 09:19:59 53° SW 09:27:14 10° SE
Cosmos 839 Rocket 4.1 09:13:50 10° NW 09:20:44 74° SW 09:26:56 10° SE
Cosmos 2219 Rocket 3.0 09:18:59 10° SSW 09:23:32 45° SSE 09:23:32 45° SSE
USA 229 DEB 4.4 09:20:48 10° SW 09:26:30 35° WNW 09:26:30 35° WNW
USA 229 4.4 09:20:51 10° SW 09:26:33 35° WNW 09:26:33 35° WNW
Cosmos 2333 Rocket 2.7 09:25:13 10° SSW 09:30:04 57° WSW 09:30:04 57° WSW
COSMOS 2428 4.2 09:28:58 10° SSW 09:33:16 26° SE 09:33:16 26° SE
Cosmos 2154 Rocket 4.1 09:27:32 10° SSW 09:33:17 71° SW 09:33:17 71° SW
Cosmos 2082 Rocket 3.6 09:30:07 10° WNW 09:35:20 36° SW 09:40:34 10° SSE
CZ-4 R/B 4.1 09:39:42 10° SSW 09:41:37 15° SW 09:41:37 15° SW
SL-16 R/B 3.4 09:45:06 10° SW 09:49:15 36° W 09:49:15 36° W
Lacrosse 5 rocket 4.4 09:48:37 10° SW 09:48:48 11° SW 09:48:48 11° SW
USA 215 3.9 10:00:07 45° W 10:00:07 45° W 10:05:03 10° WSW
Cosmos 2322 Rocket 3.3 09:55:36 10° SW 09:59:28 40° WSW 09:59:28 40° WSW
Cosmos 2237 Rocket 4.1 10:02:36 10° S 10:06:28 22° SSE 10:06:28 22° SSE
Cosmos 2360 Rocket 3.6 10:07:35 10° SW 10:11:01 34° WSW 10:11:01 34° WSW
Okean O Rocket 4.1 10:14:38 10° S 10:16:18 19° SSW 10:16:18 19° SSW
ATLAS 3B R/B 4.4 10:17:44 10° WSW 10:20:58 20° W 10:20:58 20° W
CZ-4C R/B 3.3 10:38:52 60° S 10:38:52 60° S 10:44:31 10° SE
Terra 4.5 10:39:19 10° SSW 10:41:45 14° SW 10:42:01 14° WSW
ACS3 Solar Sail 3.5 10:46:51 23° SE 10:46:51 23° SE 10:50:47 10° S
SL-16 R/B 4.4 10:50:30 10° S 10:54:25 18° SE 10:54:44 18° SE
NOSS 3-4 (A) 4.5 10:53:59 10° SW 10:59:23 48° SSW 10:59:23 48° SSW
NOSS 3-4 (C) 4.5 10:54:22 10° SW 10:59:45 48° SSW 10:59:45 48° SSW
Cosmos 2219 Rocket 4.3 11:03:19 10° SW 11:05:13 19° WSW 11:05:13 19° WSW
Cosmos 2237 Rocket 4.2 11:46:08 10° SSW 11:48:13 23° SSW 11:48:13 23° SSW
